Tracking 25963 objects as of 12-Aug-2022
HD Live streaming from Space Station
objects crossing your sky now

STARLINK-3741

Track STARLINK-3741 now!
10-day predictions
STARLINK-3741 is classified as:


NORAD ID: 52619
Int'l Code: 2022-052X
Perigee: 545.7 km
Apogee: 547.8 km
Inclination: 53.2 °
Period: 95.4 minutes
Semi major axis: 6917 km
RCS: Unknown
Launch date: May 14, 2022
Source: United States (US)
Launch site: AIR FORCE EASTERN TEST RANGE (AFETR)
aabbcc
Your satellite tracking list
Your tracking list is empty




NASA's NSSDC Master Catalog

Two Line Element Set (TLE):
1 52619U 22052X   22224.58334491 -.00051958  00000-0 -32670-2 0  9993
2 52619  53.2183   7.9713 0001533  65.2415 127.3242 15.08875650  1309
Source of the keplerian elements: AFSPC